GW3555 Weather Reports


Display with metric or nautical units.
time (UTC)temp
F
wind
direction
speed
MPH
gust
MPH
rain 1hr
in
rain 24hr
in
rain mn
in
humidity
%
barometer
mb
20260510024015 68 173 0.0 1.0 0.00 0.00 0.00 37 1016.6
20260510023520 68 169 0.0 2.0 0.00 0.00 0.00 36 1016.5
20260510023130 69 169 0.0 2.0 0.00 0.00 0.00 35 1016.6
20260510022515 69 205 0.0 5.0 0.00 0.00 0.00 36 1016.6
20260510022022 69 162 0.0 5.0 0.00 0.00 0.00 34 1016.7
20260510021607 69 128 0.0 5.0 0.00 0.00 0.00 35 1016.7
20260510021041 70 72 0.0 2.0 0.00 0.00 0.00 34 1016.7
20260510020533 70 181 0.0 2.0 0.00 0.00 0.00 33 1016.6
20260510020210 70 332 0.0 4.0 0.00 0.00 0.00 34 1016.7
20260510015520 71 119 0.0 4.0 0.00 0.00 0.00 35 1016.7
20260510015031 71 71 0.0 1.0 0.00 0.00 0.00 34 1016.8
20260510014657 71 352 0.0 2.0 0.00 0.00 0.00 34 1017.1
20260510014041 71 352 0.0 4.0 0.00 0.00 0.00 33 1017.1
20260510013525 71 57 0.0 4.0 0.00 0.00 0.00 35 1017.2
20260510013132 71 54 0.0 4.0 0.00 0.00 0.00 34 1017.1
20260510012523 71 97 0.0 3.0 0.00 0.00 0.00 33 1017.0
20260510012031 72 56 0.0 2.0 0.00 0.00 0.00 33 1016.9
20260510011630 72 143 0.0 3.0 0.00 0.00 0.00 33 1017.1
20260510011032 72 135 0.0 3.0 0.00 0.00 0.00 32 1017.1
20260510010528 72 334 0.0 2.0 0.00 0.00 0.00 32 1017.0
20260510010130 72 49 0.0 3.0 0.00 0.00 0.00 34 1017.1
20260510005544 72 82 0.0 3.0 0.00 0.00 0.00 32 1017.1
20260510005024 72 59 0.0 4.0 0.00 0.00 0.00 31 1017.1
20260510004630 72 302 0.0 3.0 0.00 0.00 0.00 31 1017.2
20260510004040 72 86 1.0 5.0 0.00 0.00 0.00 30 1017.2
20260510003525 73 146 1.0 5.0 0.00 0.00 0.00 30 1017.3
20260510003158 73 44 1.0 3.0 0.00 0.00 0.00 30 1017.3
20260510002519 73 275 1.0 3.0 0.00 0.00 0.00 31 1017.2
20260510002041 73 352 0.0 3.0 0.00 0.00 0.00 31 1017.3
20260510001615 73 63 0.0 5.0 0.00 0.00 0.00 30 1017.3
20260510001036 73 199 1.0 5.0 0.00 0.00 0.00 29 1017.3
20260510000541 73 187 1.0 4.0 0.00 0.00 0.00 30 1017.3
20260510000110 73 57 1.0 6.0 0.00 0.00 0.00 31 1017.2
20260509235536 73 37 2.0 6.0 0.00 0.00 0.00 29 1017.3
20260509235042 74 22 1.0 3.0 0.00 0.00 0.00 30 1017.3
20260509234640 74 28 1.0 3.0 0.00 0.00 0.00 29 1017.2
20260509234041 74 24 1.0 3.0 0.00 0.00 0.00 28 1017.3
20260509233522 74 17 1.0 3.0 0.00 0.00 0.00 30 1017.4
20260509233117 74 53 1.0 5.0 0.00 0.00 0.00 31 1017.5
20260509232533 74 12 1.0 8.0 0.00 0.00 0.00 29 1017.5
20260509232023 75 109 3.0 7.0 0.00 0.00 0.00 28 1017.7
20260509231615 75 55 1.0 4.0 0.00 0.00 0.00 29 1017.7
20260509231041 75 126 1.0 4.0 0.00 0.00 0.00 30 1017.7
20260509230519 75 140 1.0 8.0 0.00 0.00 0.00 29 1017.8
20260509230132 75 205 2.0 8.0 0.00 0.00 0.00 27 1017.7
20260509225521 75 60 1.0 7.0 0.00 0.00 0.00 26 1018.0
20260509225025 75 59 1.0 7.0 0.00 0.00 0.00 25 1018.1
20260509224641 75 161 1.0 9.0 0.00 0.00 0.00 27 1018.1
20260509224033 75 88 2.0 9.0 0.00 0.00 0.00 24 1018.2
20260509223524 75 61 1.0 5.0 0.00 0.00 0.00 26 1018.3
20260509223141 76 13 1.0 4.0 0.00 0.00 0.00 24 1018.3
20260509222541 75 331 2.0 7.0 0.00 0.00 0.00 24 1018.3
20260509222036 75 190 2.0 7.0 0.00 0.00 0.00 25 1018.2
20260509221559 75 334 2.0 7.0 0.00 0.00 0.00 25 1018.3
20260509221025 75 352 1.0 5.0 0.00 0.00 0.00 25 1018.3
20260509220517 75 265 2.0 6.0 0.00 0.00 0.00 25 1018.4
20260509220112 75 12 2.0 6.0 0.00 0.00 0.00 25 1018.4
20260509215536 75 337 2.0 7.0 0.00 0.00 0.00 25 1018.4
20260509215019 75 113 3.0 7.0 0.00 0.00 0.00 25 1018.5
20260509214641 75 28 1.0 4.0 0.00 0.00 0.00 25 1018.5
20260509214034 75 30 1.0 8.0 0.00 0.00 0.00 25 1018.5
20260509213530 74 75 3.0 8.0 0.00 0.00 0.00 25 1018.7
20260509213131 75 74 1.0 4.0 0.00 0.00 0.00 25 1018.7
20260509212539 74 40 2.0 8.0 0.00 0.00 0.00 25 1018.6
20260509212032 74 25 2.0 8.0 0.00 0.00 0.00 25 1018.6
20260509211630 75 132 2.0 5.0 0.00 0.00 0.00 25 1018.7
20260509211025 74 49 2.0 5.0 0.00 0.00 0.00 26 1018.8
20260509210539 75 105 1.0 7.0 0.00 0.00 0.00 26 1018.7
20260509210130 75 113 2.0 7.0 0.00 0.00 0.00 25 1018.8
20260509205519 75 92 2.0 6.0 0.00 0.00 0.00 25 1018.8
20260509205040 75 84 2.0 10.0 0.00 0.00 0.00 27 1018.8
20260509204608 75 248 2.0 10.0 0.00 0.00 0.00 24 1018.8
20260509204041 75 150 3.0 8.0 0.00 0.00 0.00 25 1018.9
20260509203541 75 23 2.0 8.0 0.00 0.00 0.00 24 1018.9
20260509203113 75 78 2.0 9.0 0.00 0.00 0.00 25 1018.9
20260509202531 75 103 1.0 9.0 0.00 0.00 0.00 24 1018.8
20260509202032 75 144 1.0 4.0 0.00 0.00 0.00 25 1018.8
20260509201609 74 360 1.0 4.0 0.00 0.00 0.00 26 1018.9
20260509201041 74 9 2.0 4.0 0.00 0.00 0.00 25 1019.0
20260509200529 74 44 2.0 6.0 0.00 0.00 0.00 24 1019.0
20260509200135 74 54 2.0 6.0 0.00 0.00 0.00 24 1018.9
20260509195522 74 130 2.0 6.0 0.00 0.00 0.00 23 1018.9
20260509195042 74 104 2.0 5.0 0.00 0.00 0.00 24 1018.9
20260509194609 73 333 2.0 8.0 0.00 0.00 0.00 25 1019.0
20260509194031 73 44 3.0 9.0 0.00 0.00 0.00 25 1019.0
20260509193545 72 39 1.0 9.0 0.00 0.00 0.00 25 1019.1
20260509193130 73 157 2.0 7.0 0.00 0.00 0.00 25 1018.9
20260509192524 73 197 2.0 8.0 0.00 0.00 0.00 25 1019.1
20260509192042 73 80 1.0 5.0 0.00 0.00 0.00 27 1019.1
20260509191611 73 40 1.0 4.0 0.00 0.00 0.00 27 1019.1
20260509191051 73 51 2.0 5.0 0.00 0.00 0.00 28 1019.2
20260509190532 73 78 1.0 6.0 0.00 0.00 0.00 27 1019.2
20260509190141 73 146 2.0 6.0 0.00 0.00 0.00 28 1019.2
20260509185533 72 99 2.0 7.0 0.00 0.00 0.00 29 1019.2
20260509185037 73 145 2.0 5.0 0.00 0.00 0.00 28 1019.3
20260509184707 72 14 2.0 7.0 0.00 0.00 0.00 28 1019.2
20260509184029 72 188 1.0 7.0 0.00 0.00 0.00 29 1019.3
20260509183522 72 215 1.0 6.0 0.00 0.00 0.00 28 1019.3
20260509183204 71 333 1.0 4.0 0.00 0.00 0.00 25 1019.2
20260509182541 71 148 2.0 5.0 0.00 0.00 0.00 24 1019.3
20260509182017 71 92 2.0 6.0 0.00 0.00 0.00 28 1019.4
20260509181718 70 83 2.0 6.0 0.00 0.00 0.00 29 1019.4
20260509181041 70 227 1.0 4.0 0.00 0.00 0.00 28 1019.6
20260509180532 70 185 0.0 3.0 0.00 0.00 0.00 29 1019.7
20260509180157 69 341 1.0 3.0 0.00 0.00 0.00 31 1019.6
20260509175600 69 350 1.0 3.0 0.00 0.00 0.00 32 1019.5
20260509175020 69 346 1.0 4.0 0.00 0.00 0.00 33 1019.5
20260509174649 68 36 0.0 4.0 0.00 0.00 0.00 33 1019.5
20260509174021 68 152 1.0 4.0 0.00 0.00 0.00 34 1019.5
20260509173524 68 73 0.0 6.0 0.00 0.00 0.00 35 1019.5
20260509173153 67 190 3.0 5.0 0.00 0.00 0.00 35 1019.5
20260509172521 67 248 1.0 4.0 0.00 0.00 0.00 34 1019.8
20260509172032 67 5 0.0 4.0 0.00 0.00 0.00 38 1019.7
20260509171621 66 12 1.0 4.0 0.00 0.00 0.00 36 1019.8
20260509171013 66 132 1.0 5.0 0.00 0.00 0.00 36 1019.9
20260509170536 66 161 1.0 5.0 0.00 0.00 0.00 39 1019.8
20260509170146 65 54 1.0 6.0 0.00 0.00 0.00 39 1019.9
20260509165539 65 154 2.0 6.0 0.00 0.00 0.00 38 1019.9
20260509165032 64 132 1.0 4.0 0.00 0.00 0.00 40 1019.9
20260509164533 64 340 0.0 4.0 0.00 0.00 0.00 37 1020.1
20260509164020 64 347 1.0 4.0 0.00 0.00 0.00 37 1020.1
20260509163539 64 135 1.0 4.0 0.00 0.00 0.00 39 1020.1
20260509163138 63 146 0.0 3.0 0.00 0.00 0.00 40 1020.0
20260509162525 62 187 0.0 6.0 0.00 0.00 0.00 39 1020.1
20260509162029 62 159 2.0 5.0 0.00 0.00 0.00 39 1020.3
20260509161538 62 127 1.0 3.0 0.00 0.00 0.00 40 1020.2
20260509161020 62 117 1.0 3.0 0.00 0.00 0.00 42 1020.3
20260509160541 61 135 1.0 3.0 0.00 0.00 0.00 43 1020.4
20260509160149 60 194 1.0 3.0 0.00 0.00 0.00 44 1020.2
20260509155528 59 107 0.0 3.0 0.00 0.00 0.00 46 1020.3
20260509155034 58 79 0.0 3.0 0.00 0.00 0.00 47 1020.4
20260509154701 58 144 0.0 4.0 0.00 0.00 0.00 49 1020.4
20260509154028 57 305 1.0 6.0 0.00 0.00 0.00 47 1020.4
20260509153514 56 78 1.0 6.0 0.00 0.00 0.00 48 1020.2
20260509153138 56 102 1.0 3.0 0.00 0.00 0.00 49 1020.4
20260509152516 55 94 1.0 4.0 0.00 0.00 0.00 50 1020.3
20260509152021 55 102 0.0 4.0 0.00 0.00 0.00 52 1020.3
20260509151612 54 96 2.0 4.0 0.00 0.00 0.00 52 1020.3
20260509151041 54 135 0.0 5.0 0.00 0.00 0.00 53 1020.3
20260509150529 54 271 0.0 5.0 0.00 0.00 0.00 53 1020.3
20260509150109 53 90 1.0 6.0 0.00 0.00 0.00 53 1020.3
20260509145538 53 169 0.0 3.0 0.00 0.00 0.00 54 1020.6
20260509145032 52 117 1.0 4.0 0.00 0.00 0.00 55 1020.4
20260509144604 52 306 1.0 4.0 0.00 0.00 0.00 55 1020.4
20260509144015 51 221 1.0 4.0 0.00 0.00 0.00 56 1020.4
20260509143528 51 318 0.0 3.0 0.00 0.00 0.00 57 1020.3
20260509143048 51 298 0.0 4.0 0.00 0.00 0.00 57 1020.3
20260509142537 50 301 0.0 4.0 0.00 0.00 0.00 58 1020.4
20260509142047 50 255 0.0 4.0 0.00 0.00 0.00 60 1020.5
20260509141622 49 256 0.0 3.0 0.00 0.00 0.00 61 1020.5
20260509141032 49 256 0.0 4.0 0.00 0.00 0.00 61 1020.6
20260509140536 49 253 1.0 4.0 0.00 0.00 0.00 62 1020.7
20260509140128 48 248 2.0 4.0 0.00 0.00 0.00 62 1020.8
20260509135537 47 234 1.0 3.0 0.00 0.00 0.00 64 1020.7
20260509135025 47 234 2.0 3.0 0.00 0.00 0.00 66 1020.7
20260509134603 46 260 1.0 3.0 0.00 0.00 0.00 67 1020.7
20260509134037 46 260 1.0 3.0 0.00 0.00 0.00 67 1020.6
20260509133541 45 255 1.0 3.0 0.00 0.00 0.00 68 1020.7
20260509133149 45 262 1.0 4.0 0.00 0.00 0.00 68 1020.7
20260509132532 44 238 2.0 4.0 0.00 0.00 0.00 68 1020.7
20260509132020 44 248 2.0 4.0 0.00 0.00 0.00 68 1020.6
20260509131631 45 240 2.0 4.0 0.00 0.00 0.00 68 1020.6
20260509131038 45 247 2.0 4.0 0.00 0.00 0.00 66 1020.6
20260509130537 45 236 2.0 4.0 0.00 0.00 0.00 66 1020.6
20260509130133 44 302 1.0 3.0 0.00 0.00 0.00 67 1020.6
20260509125525 44 283 1.0 3.0 0.00 0.00 0.00 67 1020.6
20260509125026 44 283 1.0 4.0 0.00 0.00 0.00 67 1020.6
20260509124650 45 264 2.0 4.0 0.00 0.00 0.00 66 1020.6
20260509124024 45 258 2.0 3.0 0.00 0.00 0.00 66 1020.7
20260509123515 45 281 1.0 2.0 0.00 0.00 0.00 65 1020.8
20260509123108 44 277 1.0 4.0 0.00 0.00 0.00 67 1020.7
20260509122523 44 340 0.0 4.0 0.00 0.00 0.00 66 1020.7
20260509122020 44 304 1.0 4.0 0.00 0.00 0.00 68 1020.7
20260509121645 44 254 1.0 4.0 0.00 0.00 0.00 68 1020.7
20260509121041 44 244 2.0 4.0 0.00 0.00 0.00 68 1020.8
20260509120531 45 252 2.0 4.0 0.00 0.00 0.00 67 1020.8
20260509120200 45 254 2.0 3.0 0.00 0.00 0.00 67 1020.7
20260509115542 45 234 1.0 3.0 0.00 0.00 0.00 66 1020.7
20260509115032 45 235 1.0 4.0 0.00 0.00 0.00 67 1020.9
20260509114610 45 239 2.0 4.0 0.00 0.00 0.00 66 1020.8
20260509114016 45 241 2.0 4.0 0.00 0.00 0.00 67 1020.8
20260509113543 45 259 2.0 4.0 0.00 0.00 0.00 67 1020.9
20260509113155 45 237 2.0 4.0 0.00 0.00 0.00 66 1020.9
20260509112542 45 241 0.0 4.0 0.00 0.00 0.00 66 1020.9
20260509112049 46 251 1.0 3.0 0.00 0.00 0.00 64 1020.7
20260509111618 46 241 1.0 5.0 0.00 0.00 0.00 63 1020.9
20260509111037 46 244 2.0 5.0 0.00 0.00 0.00 63 1020.7
20260509110545 46 231 3.0 5.0 0.00 0.00 0.00 63 1020.8
20260509110145 46 231 3.0 5.0 0.00 0.00 0.00 62 1020.7
20260509105519 47 239 3.0 6.0 0.00 0.00 0.00 62 1020.8
20260509105019 47 236 3.0 5.0 0.00 0.00 0.00 61 1020.9
20260509104626 47 263 2.0 5.0 0.00 0.00 0.00 60 1020.9
20260509104014 47 242 2.0 7.0 0.00 0.00 0.00 60 1020.9
20260509103608 47 261 3.0 7.0 0.00 0.00 0.00 60 1020.8
20260509103102 46 234 3.0 6.0 0.00 0.00 0.00 62 1020.8
20260509102513 46 241 3.0 6.0 0.00 0.00 0.00 63 1020.8
20260509102020 46 239 3.0 6.0 0.00 0.00 0.00 63 1020.7
20260509101644 46 236 3.0 7.0 0.00 0.00 0.00 63 1020.7
20260509101038 47 242 3.0 5.0 0.00 0.00 0.00 63 1020.7
20260509100529 47 229 3.0 5.0 0.00 0.00 0.00 61 1020.6
20260509100211 47 236 3.0 5.0 0.00 0.00 0.00 62 1020.5
20260509095537 47 235 2.0 7.0 0.00 0.00 0.00 61 1020.6
20260509095031 47 225 2.0 7.0 0.00 0.00 0.00 61 1020.6
20260509094628 47 234 2.0 5.0 0.00 0.00 0.00 62 1020.5
20260509094041 47 229 3.0 4.0 0.00 0.00 0.00 62 1020.5
20260509093537 47 248 2.0 4.0 0.00 0.00 0.00 62 1020.5
20260509093132 47 242 2.0 4.0 0.00 0.00 0.00 61 1020.4
20260509092539 47 227 2.0 4.0 0.00 0.00 0.00 61 1020.4
20260509092029 48 236 2.0 4.0 0.00 0.00 0.00 60 1020.4
20260509091608 48 240 2.0 4.0 0.00 0.00 0.00 60 1020.3
20260509091025 48 217 2.0 4.0 0.00 0.00 0.00 60 1020.3
20260509090541 48 226 2.0 5.0 0.00 0.00 0.00 59 1020.1
20260509090144 49 213 3.0 5.0 0.00 0.00 0.00 58 1020.1
20260509085537 49 194 2.0 4.0 0.00 0.00 0.00 58 1020.0
20260509085039 49 221 2.0 5.0 0.00 0.00 0.00 57 1020.0
20260509084609 49 249 2.0 5.0 0.00 0.00 0.00 57 1019.8
20260509084040 49 209 2.0 4.0 0.00 0.00 0.00 58 1019.8
20260509083534 49 225 3.0 5.0 0.00 0.00 0.00 57 1019.8
20260509083109 50 196 3.0 5.0 0.00 0.00 0.00 55 1019.8
20260509082529 50 215 2.0 4.0 0.00 0.00 0.00 54 1019.7
20260509082029 50 226 2.0 4.0 0.00 0.00 0.00 55 1019.7
20260509081649 50 228 2.0 4.0 0.00 0.00 0.00 55 1019.7
20260509081041 50 219 2.0 4.0 0.00 0.00 0.00 55 1019.6
20260509080559 51 257 1.0 4.0 0.00 0.00 0.00 54 1019.5
20260509080154 51 205 2.0 4.0 0.00 0.00 0.00 54 1019.5
20260509075541 51 242 1.0 4.0 0.00 0.00 0.00 54 1019.5
20260509075031 52 230 1.0 5.0 0.00 0.00 0.00 52 1019.4
20260509074611 52 190 2.0 5.0 0.00 0.00 0.00 52 1019.4
20260509074034 52 221 1.0 4.0 0.00 0.00 0.00 52 1019.5
20260509073517 52 228 0.0 4.0 0.00 0.00 0.00 52 1019.3
20260509073142 52 208 2.0 4.0 0.00 0.00 0.00 52 1019.3
20260509072527 52 222 2.0 5.0 0.00 0.00 0.00 51 1019.3
20260509072017 52 242 3.0 5.0 0.00 0.00 0.00 51 1019.3
20260509071626 53 240 2.0 4.0 0.00 0.00 0.00 51 1019.2
20260509071031 53 222 2.0 4.0 0.00 0.00 0.00 50 1019.1
20260509070524 53 230 2.0 5.0 0.00 0.00 0.00 50 1019.1
20260509070219 53 240 1.0 5.0 0.00 0.00 0.00 50 1018.9
20260509065532 53 211 2.0 4.0 0.00 0.00 0.00 49 1018.9
20260509065032 53 213 0.0 3.0 0.00 0.00 0.00 49 1018.9
20260509064632 53 246 2.0 4.0 0.00 0.00 0.00 49 1018.8
20260509064019 53 220 1.0 5.0 0.00 0.00 0.00 49 1018.7
20260509063540 53 254 2.0 5.0 0.00 0.00 0.00 48 1018.8
20260509063133 53 243 1.0 4.0 0.00 0.00 0.00 49 1018.7
20260509062514 53 242 0.0 5.0 0.00 0.00 0.00 48 1018.8
20260509062025 53 234 2.0 5.0 0.00 0.00 0.00 48 1018.8
20260509061616 53 216 2.0 5.0 0.00 0.00 0.00 47 1018.6
20260509061036 54 237 1.0 4.0 0.00 0.00 0.00 47 1018.8
20260509060530 54 221 2.0 10.0 0.00 0.00 0.00 47 1018.6
20260509055548 54 238 2.0 7.0 0.00 0.00 0.00 46 1018.7
20260509055053 54 214 2.0 7.0 0.00 0.00 0.00 46 1018.7
20260509054602 54 233 2.0 5.0 0.00 0.00 0.00 46 1018.6
20260509054037 54 238 2.0 5.0 0.00 0.00 0.00 46 1018.7
20260509053525 54 65 2.0 5.0 0.00 0.00 0.00 46 1018.7
20260509053143 54 226 2.0 5.0 0.00 0.00 0.00 45 1018.6
20260509052522 54 236 2.0 5.0 0.00 0.00 0.00 46 1018.8
20260509052019 54 186 2.0 5.0 0.00 0.00 0.00 46 1018.7
20260509051557 54 312 1.0 5.0 0.00 0.00 0.00 45 1018.7
20260509051040 54 246 2.0 5.0 0.00 0.00 0.00 45 1018.4
20260509050544 54 232 2.0 7.0 0.00 0.00 0.00 45 1018.3
20260509050113 55 238 3.0 7.0 0.00 0.00 0.00 44 1018.3
20260509045522 55 243 3.0 6.0 0.00 0.00 0.00 44 1018.4
20260509045032 55 255 2.0 6.0 0.00 0.00 0.00 43 1018.3
20260509044609 55 251 2.0 6.0 0.00 0.00 0.00 42 1018.2
20260509044032 55 244 2.0 7.0 0.00 0.00 0.00 43 1018.2
20260509043526 55 242 2.0 7.0 0.00 0.00 0.00 42 1018.2
20260509043108 55 232 3.0 8.0 0.00 0.00 0.00 42 1018.0
20260509042536 55 264 2.0 8.0 0.00 0.00 0.00 42 1017.9
20260509042039 55 245 2.0 6.0 0.00 0.00 0.00 42 1017.9
20260509041543 55 238 2.0 6.0 0.00 0.00 0.00 41 1017.9
20260509041016 55 253 2.0 6.0 0.00 0.00 0.00 41 1017.9
20260509040606 55 262 2.0 7.0 0.00 0.00 0.00 41 1017.9
20260509040059 55 210 3.0 7.0 0.00 0.00 0.00 40 1017.8
20260509035524 55 235 2.0 6.0 0.00 0.00 0.00 40 1017.8
20260509035030 56 240 3.0 6.0 0.00 0.00 0.00 40 1017.7
20260509034632 56 232 2.0 7.0 0.00 0.00 0.00 39 1017.7
20260509034031 56 237 1.0 7.0 0.00 0.00 0.00 39 1017.7
20260509033529 56 198 1.0 6.0 0.00 0.00 0.00 39 1017.5
20260509033116 56 240 2.0 5.0 0.00 0.00 0.00 39 1017.4
20260509032545 57 242 2.0 7.0 0.00 0.00 0.00 38 1017.3
20260509032026 57 225 3.0 7.0 0.00 0.00 0.00 37 1017.1
20260509031631 57 244 2.0 4.0 0.00 0.00 0.00 37 1017.0
20260509031016 57 212 2.0 7.0 0.00 0.00 0.00 37 1016.9
20260509030531 57 238 2.0 7.0 0.00 0.00 0.00 37 1016.8
20260509030108 58 193 3.0 7.0 0.00 0.00 0.00 36 1016.7
20260509025536 58 238 3.0 9.0 0.00 0.00 0.00 35 1016.7
20260509025030 58 219 3.0 9.0 0.00 0.00 0.00 35 1016.5
20260509024623 58 249 2.0 6.0 0.00 0.00 0.00 34 1016.5